238P/Read (2016)

Japanese version
Home page
Updated on March 3, 2018

---------------------------------------------------------------------

* Profile

* Pictures

* Orbital Elements

Epoch 2016 Oct. 19.0 TT = JDT 2457680.5
T 2016 Oct. 22.62371 TT                                 MPCW
q   2.3661490            (2000.0)            P               Q
n   0.17501635     Peri.  324.94273     +0.95822782     -0.28548176
a   3.1653152      Node    51.65427     +0.26719020     +0.87195760
e   0.2524760      Incl.    1.26465     +0.10202377     +0.39773120
P   5.63
From 202 observations 2005 Oct. 23-2017 Nov. 16, mean residual 0".5.

* Magnitudes Graph

        m1 = 8.0 + 5 log d + 30 log r

---------------------------------------------------------------------

The orbital elements are published on M.P.E.C. 2017-X08.
The magnitudes graphs are made with Comet for Windows.

---------------------------------------------------------------------

Copyright(C) Seiichi Yoshida (comet@aerith.net). All rights reserved.